Location: Fours
(44.3167°N, 6.7000°E)
Time: 21:36:12
(UTC+00:00)

CZ-4 R/B - Pass Details

Date: 16 October 2021
Orbit: 580 x 588 km, 97.7° (Epoch: 29 November)

Event Time Altitude Azimuth Distance (km) Brightness Sun altitude
Rises 17:35:35 0° 157° (SSE) 2,802 7.7 -9.4°
Reaches altitude 10° 17:37:45 10° 153° (SSE) 1,906 6.8 -9.8°
Maximum altitude 17:41:49 61° 74° (ENE) 671 4.4 -10.5°
Drops below altitude 10° 17:45:55 10° 354° (N) 1,916 7.1 -11.2°
Sets 17:48:06 0° 351° (N) 2,819 8.0 -11.6°
